RH
98 99 97 97 96 93 90 83 79 81 78 77 74 70 65 58 56 59 65 68 70 70 66 69 67 64 69 67 67 72 74 80 82 71 68 62 62 58 59 61 65 69 71
94 97 96 96 96 97 95 92 84 80 77 75 72 72 71 69 70 69 68 69 79 82 82 78 75 79 79 78 80 81 83 78 83 79 74 74 71 67 68 68 67 71 76
92 94 97 97 97 95 95 93 89 87 83 77 73 71 73 81 82 77 77 76 75 81 82 84 81 82 82 82 84 87 87 86 88 88 78 75 77 77 79 82 82 82 86
87 91 95 96 96 94 91 91 91 91 91 88 85 81 76 72 77 83 84 84 81 78 79 82 83 86 84 85 88 87 86 88 92 95 90 88 89 91 93 95 99 95 92
82 95 96 95 96 96 94 93 91 94 89 88 89 89 87 85 78 75 76 75 78 81 82 82 84 85 82 83 85 86 92 95 93 92 90 88 95 100 97 93 100 99 99
83 84 88 97 97 97 95 94 93 91 91 89 89 90 92 92 88 84 78 80 79 79 82 88 90 89 88 86 84 81 79 87 94 87 86 86 84 99 100 100 100 100 98
85 87 90 86 92 95 99 98 97 95 91 94 89 89 87 90 91 88 85 83 83 85 82 81 81 83 83 84 82 82 84 84 82 88 87 85 88 91 100 100 100 99 100
88 89 92 94 93 97 91 90 97 98 96 94 95 94 91 90 88 87 86 83 84 82 84 85 84 82 84 84 88 86 90 97 98 97 99 100 99 99 100 100 99 100 98
90 90 90 94 96 98 98 100 97 91 96 96 95 97 97 93 90 89 86 88 90 85 81 79 79 83 84 86 87 97 100 100 100 100 100 100 100 100 99 98 100 96 98
90 90 90 92 95 98 100 100 100 100 100 88 93 94 94 96 96 92 91 95 96 94 92 91 88 88 90 91 94 100 100 100 100 100 100 100 99 99 99 99 100 98 97
90 92 93 95 96 98 100 100 100 100 100 100 98 100 100 100 100 100 99 95 100 100 100 100 100 100 100 100 100 100 100 99 99 100 100 98 97 97 97 97 97 97 96
92 94 95 96 100 100 100 100 100 100 100 100 99 100 100 100 99 100 100 100 100 100 100 99 99 99 99 99 99 97 98 98 98 98 97 97 97 96 96 96 96 96 96
97 98 98 96 99 100 100 100 100 100 100 100 100 99 100 100 100 100 100 100 100 99 98 98 100 100 98 99 99 96 100 99 97 97 98 96 96 96 97 95 95 95 92
97 98 97 97 94 98 98 99 100 100 99 98 97 98 100 98 100 99 100 100 100 97 94 100 96 96 100 97 96 94 92 93 96 96 96 96 96 95 94 96 93 80 80
98 98 98 98 97 94 98 99 98 100 100 99 100 100 96 98 100 98 98 98 99 98 95 97 97 97 96 98 97 95 95 95 95 95 96 97 96 94 92 77 79 76 91
98 99 99 98 96 96 95 91 100 99 98 97 97 98 99 97 96 97 98 100 96 96 96 96 96 97 96 97 98 100 96 94 95 94 93 91 89 89 85 76 74 79 90
100 100 100 100 100 98 96 95 95 97 100 100 98 98 98 97 96 98 98 95 97 94 96 97 96 96 96 96 97 97 98 98 90 88 84 82 79 84 90 94 94 90 88
96 97 100 100 100 100 100 100 98 96 95 96 97 99 98 99 99 97 96 92 96 96 96 96 97 97 97 98 100 97 95 91 90 89 86 85 85 88 96 99 95 89 94
100 96 94 94 94 97 99 98 99 98 97 97 95 94 96 100 99 99 98 96 96 97 98 99 99 96 96 94 94 93 92 93 93 89 86 80 77 78 92 92 86 81 81
97 100 96 96 96 97 100 99 98 98 98 98 98 98 95 92 95 97 96 99 100 100 99 97 96 94 93 90 88 87 86 88 88 86 81 77 79 86 96 89 83 83 90
93 92 94 99 100 100 100 100 99 100 100 100 100 97 93 98 100 100 100 97 97 96 94 91 90 89 89 87 85 86 89 91 88 84 80 80 82 86 90 86 84 83 79
92 95 95 98 100 100 100 99 100 100 100 100 100 90 84 92 100 100 92 92 94 92 90 85 87 92 94 94 95 90 90 90 87 84 77 77 82 89 89 86 84 77 86
88 89 91 96 99 96 99 100 97 96 99 100 91 86 82 89 94 95 94 90 94 95 88 83 79 88 91 88 87 88 85 88 89 85 78 71 70 79 92 90 90 95 94
86 90 96 94 92 95 97 100 98 95 96 99 99 97 96 93 94 96 96 94 92 97 95 91 91 86 83 83 86 90 91 92 90 86 82 85 92 93 91 93 96 92 89
86 89 90 92 92 92 92 96 96 94 94 96 97 97 98 96 94 94 89 85 95 95 98 99 99 97 96 100 100 98 94 90 91 92 85 86 92 97 99 97 94 91 93
88 85 87 85 82 86 92 92 94 90 93 95 96 93 92 95 99 98 93 89 99 100 100 100 100 100 99 100 100 98 98 97 93 86 83 84 90 93 94 96 99 98 97
Wind_Speed
32 30 30 30 29 30 32 37 38 37 38 34 36 39 40 42 43 41 38 36 39 40 42 41 42 43 41 41 41 39 35 30 19 29 35 39 40 42 44 43 42 39 42
30 30 31 31 32 30 31 31 36 36 39 42 39 39 40 42 42 43 41 38 37 37 38 40 44 38 41 40 37 38 36 37 30 28 32 34 41 45 45 46 46 42 42
17 23 26 29 31 33 33 31 34 37 38 39 41 42 39 38 39 43 43 41 41 40 39 39 42 36 40 38 37 36 36 37 35 32 35 32 35 39 41 41 42 43 43
25 27 26 30 33 34 34 34 35 36 35 37 41 41 42 42 42 42 40 41 42 43 42 43 43 40 43 41 38 39 38 34 33 31 32 33 32 36 36 34 33 44 46
9 24 27 29 29 29 30 32 35 36 37 36 36 38 40 41 45 44 44 45 43 43 42 44 46 46 48 46 38 37 34 33 33 32 31 31 26 22 27 34 31 30 32
23 23 9 24 29 33 32 32 34 37 38 38 40 40 40 43 46 48 47 42 42 42 43 43 42 43 47 49 50 50 44 37 35 33 32 30 33 30 33 32 27 15 5
24 24 24 22 19 16 28 31 35 38 36 37 41 39 43 44 48 50 50 49 42 41 43 42 41 42 45 46 50 50 51 54 53 44 38 39 35 34 31 29 27 18 8
21 23 24 25 20 20 19 15 27 37 37 41 41 43 44 46 51 51 50 52 48 47 43 43 44 43 43 46 42 43 41 42 43 44 43 37 31 22 23 22 19 19 18
20 21 21 22 24 25 23 22 25 26 26 39 44 42 42 46 48 49 51 48 44 45 45 46 47 43 41 40 44 37 25 16 8 12 14 12 10 10 16 19 23 21 4
25 23 21 20 19 19 22 28 26 26 30 31 37 39 40 42 42 47 48 45 41 38 42 41 44 45 41 42 44 40 28 25 28 28 27 25 23 20 16 15 18 15 11
22 22 22 22 21 19 21 20 22 25 27 18 16 14 12 12 23 29 37 45 39 37 31 20 15 18 26 30 30 29 29 34 28 26 27 25 24 22 19 18 13 16 13
17 20 25 27 25 22 22 24 19 17 13 15 17 21 23 21 18 8 12 22 17 19 19 22 24 25 26 26 26 37 36 33 29 27 27 22 22 22 17 18 15 14 12
17 19 20 24 29 26 27 27 22 19 16 16 18 20 21 25 29 32 31 31 35 39 38 32 34 40 42 39 33 31 23 29 29 25 24 23 18 17 13 17 13 13 11
18 20 21 24 28 33 30 30 26 21 18 18 18 19 18 22 21 25 27 32 39 43 42 35 43 41 33 39 34 31 30 24 24 25 23 21 17 17 18 14 13 7 9
18 18 19 20 23 26 36 39 34 39 27 22 22 21 20 23 23 24 26 27 27 34 38 32 28 32 31 26 34 30 26 27 28 22 20 17 18 18 14 11 11 9 12
19 20 21 21 21 22 22 29 40 44 44 43 37 33 36 33 31 31 31 27 34 29 33 29 24 25 24 20 20 24 24 26 21 19 17 15 15 13 12 13 12 12 11
19 19 19 21 21 21 22 23 23 30 37 42 41 38 36 33 31 30 29 32 25 33 35 22 26 20 22 19 18 21 19 19 18 18 14 14 15 13 11 10 10 7 8
22 23 23 22 22 22 20 21 25 23 22 26 32 34 34 32 29 26 24 28 29 34 27 21 22 21 19 20 18 19 19 18 17 15 15 15 14 13 12 10 11 14 11
19 21 21 22 23 22 21 23 23 23 22 21 24 27 26 26 28 29 29 29 24 22 21 22 22 22 21 20 20 18 17 15 15 16 15 16 14 13 14 13 11 11 13
21 19 19 18 20 20 18 18 20 20 20 20 21 20 21 24 28 28 27 25 22 20 21 22 20 19 18 17 17 16 15 12 13 14 14 12 11 11 12 11 12 12 12
17 18 18 19 18 17 17 18 18 18 18 19 20 20 20 23 22 23 22 22 20 20 19 19 17 16 15 15 14 13 12 11 11 11 10 10 9 10 8 8 8 10 11
16 17 17 18 18 18 18 18 17 17 16 17 17 20 19 22 20 19 20 19 18 16 15 14 15 15 13 12 10 9 9 9 9 11 11 9 6 5 5 6 7 9 9
16 16 17 17 17 18 19 19 19 19 18 17 18 19 19 19 18 17 17 15 14 14 13 13 12 11 9 9 8 8 8 9 10 11 11 9 7 4 3 4 6 8 11
15 16 17 17 17 18 19 18 18 17 17 16 15 15 15 15 15 14 12 10 10 10 10 12 12 11 11 9 8 6 6 8 10 10 8 4 1 2 2 3 5 8 10
15 16 16 17 17 17 17 17 17 15 14 13 13 12 9 9 9 9 9 8 6 5 6 6 7 8 7 5 4 7 9 9 9 9 8 5 2 1 1 3 6 9 10
16 16 15 14 14 14 13 13 13 12 11 9 7 7 7 5 5 6 7 5 3 3 3 4 4 5 7 7 10 11 10 12 13 12 7 4 2 1 2 5 7 9 10
Wind_Direction
190 190 193 198 203 210 215 219 219 218 218 218 220 220 222 226 228 228 229 231 234 237 236 237 240 241 241 246 248 246 245 240 242 253 254 257 258 261 262 260 260 260 260
194 194 197 199 203 205 210 216 222 219 222 222 222 225 226 229 232 232 231 232 235 234 234 236 240 240 243 243 243 244 242 245 243 251 252 252 253 258 260 258 256 253 255
218 209 205 206 208 209 211 213 219 223 224 226 226 227 229 230 231 232 232 233 234 236 235 234 239 235 239 241 240 241 242 245 243 246 256 257 258 259 256 253 252 255 258
227 221 218 218 217 218 218 216 217 220 222 224 228 230 231 231 232 232 231 233 235 238 238 239 242 236 238 238 235 240 244 243 243 244 253 258 255 254 250 249 250 254 255
222 216 223 229 231 229 229 227 225 221 221 225 228 231 232 233 233 233 234 236 239 241 241 240 241 239 241 240 236 243 242 242 245 248 252 255 246 228 235 250 243 247 254
22 18 346 240 233 234 234 231 230 230 230 227 229 231 231 231 234 235 233 234 236 239 241 240 240 242 243 245 247 247 245 243 244 247 253 253 254 235 238 236 235 211 241
13 6 3 360 5 268 241 231 232 234 233 231 233 231 235 236 237 237 235 232 235 236 238 240 242 242 244 246 248 248 246 245 246 246 252 253 259 248 231 223 210 200 176
15 5 356 351 347 342 333 319 253 239 233 233 234 233 235 236 237 236 234 234 232 235 236 238 239 240 238 237 234 236 235 240 247 251 254 255 256 249 226 207 184 149 113
13 4 355 349 340 336 331 324 309 298 271 237 235 234 231 237 240 239 237 235 235 237 239 240 241 237 235 232 229 220 210 200 188 202 188 167 163 171 186 170 143 138 105
1 357 356 349 341 331 325 321 313 307 299 281 246 239 236 238 239 240 237 231 234 235 235 237 237 237 237 234 228 211 167 153 136 126 120 115 116 122 134 140 149 131 118
354 358 3 0 349 340 333 330 321 324 321 311 250 231 240 253 238 238 237 235 226 223 221 217 228 228 215 202 203 183 158 136 121 105 100 103 96 90 86 94 99 107 105
9 10 12 9 7 360 353 353 355 358 15 44 60 44 43 40 29 342 233 216 212 177 132 120 102 100 94 96 109 124 121 116 107 99 90 78 79 83 80 76 71 72 79
29 29 28 27 24 20 16 7 5 22 37 48 60 60 47 42 53 62 77 98 108 100 99 86 88 94 95 90 90 90 54 98 103 94 92 89 83 90 83 79 67 64 67
43 39 38 38 37 36 36 32 27 24 40 51 58 65 64 64 60 72 71 79 89 94 100 86 97 94 78 103 99 98 102 89 70 76 76 83 88 73 65 59 61 59 75
48 44 43 43 44 47 49 45 45 45 51 59 60 62 63 66 63 77 86 84 85 93 96 82 75 72 78 65 79 82 85 85 79 79 73 68 73 74 63 61 59 60 67
54 47 46 47 47 49 51 52 48 48 51 58 64 70 69 75 75 75 77 82 94 95 82 84 76 78 81 77 79 84 83 84 88 92 92 89 77 72 71 65 60 57 59
59 55 53 54 51 51 54 59 53 48 51 51 53 57 63 67 63 70 81 82 76 88 78 71 83 82 82 79 79 80 77 84 90 90 88 82 82 74 70 66 57 57 42
68 68 65 62 60 57 56 58 68 57 40 36 43 53 56 58 62 66 69 84 64 69 70 68 71 72 73 79 81 87 92 92 92 92 87 83 82 81 73 56 45 44 35
61 69 74 74 72 68 64 64 64 66 64 51 43 49 56 56 62 63 67 65 64 66 72 73 77 86 89 93 94 94 94 93 96 91 80 71 65 63 60 53 44 32 30
72 71 72 74 74 69 61 64 65 66 65 63 56 47 56 65 55 56 65 66 65 67 74 79 85 90 93 97 98 96 94 89 78 71 66 60 54 58 57 42 33 26 23
73 76 79 75 68 68 67 66 67 67 68 66 62 65 70 68 62 63 65 70 75 80 83 85 84 83 81 81 84 87 87 79 68 58 51 48 40 43 37 27 23 24 16
79 76 75 76 79 70 70 75 73 72 70 71 69 70 73 77 74 71 73 72 73 76 77 77 76 73 70 73 76 76 71 58 41 25 17 15 12 5 7 10 10 9 10
80 81 82 81 81 84 81 77 79 79 79 80 78 77 75 77 78 78 75 68 68 69 65 61 62 68 55 42 34 30 24 17 8 355 344 329 325 323 345 354 7 14 17
86 86 82 82 85 86 85 85 85 86 86 86 83 82 82 78 77 73 65 55 54 58 48 42 35 27 20 23 35 33 12 351 337 332 332 334 352 335 348 6 14 7 354
84 86 86 85 85 88 89 87 85 83 84 88 87 84 84 80 69 59 46 39 48 48 40 20 8 12 23 31 21 358 352 350 350 347 344 341 304 267 338 343 345 352 357
82 82 82 81 80 79 83 88 87 79 75 78 78 64 56 60 54 32 21 12 9 353 340 333 343 0 360 345 341 348 348 345 344 339 326 315 269 261 334 357 354 348 349